Location: Prague
(50.0830°N, 14.4670°E)
Time: 08:45:33
(UTC+01:00)

XW-2F - Pass Details

Date: 02 December 2021
Orbit: 494 x 515 km, 97.5° (Epoch: 18 January)

Event Time Altitude Azimuth Distance (km) Brightness Sun altitude
Rises 05:28:15 0° 25° (NNE) 2,655 ? -20.3°
Reaches altitude 10° 05:30:45 10° 42° (NE) 1,762 ? -19.9°
Maximum altitude 05:33:42 21° 93° (E) 1,197 ? -19.5°
Drops below altitude 10° 05:36:38 10° 144° (SE) 1,747 ? -19.0°
Sets 05:39:06 0° 161° (SSE) 2,626 ? -18.6°
